This demonstration page uses our WeatherBlox Daily Observations layout. Learn more.

Left ArrowRight Arrow

Hourly Observations for April 17, 2018

Temp ( °F °C ) Dew Point ( °F °C ) Humidity (%) Winds ( mph kmh ) Pressure ( in mb ) Visibility ( mi km ) Precip ( " mm )
12:56 am 00:56 Clear 36 2.2 30 -1.1 79 79 E 14 22 29.96 1015 10 16 0.00 0.00
1:56 am 01:56 Clear 36 2.2 30 -1.1 79 79 ESE 16 26 29.93 1014 10 16 0.00 0.00
2:56 am 02:56 Clear 35 1.7 29 -1.7 78 78 ESE 15 24 29.92 1013 10 16 0.00 0.00
3:56 am 03:56 Clear 32 0 28 -2.2 85 85 E 10 17 29.91 1013 10 16 0.00 0.00
4:56 am 04:56 Clear 31 -0.6 28 -2.2 89 89 E 8 13 29.91 1013 10 16 0.00 0.00
5:56 am 05:56 Clear 31 -0.6 28 -2.2 89 89 E 12 19 29.88 1012 10 16 0.00 0.00
6:56 am 06:56 Sunny 31 -0.6 28 -2.2 89 89 E 13 20 29.87 1011 10 16 0.00 0.00
7:56 am 07:56 Sunny 32 0 29 -1.7 88 88 E 15 24 29.87 1011 9 14 0.00 0.00
8:56 am 08:56 Sunny 34 1.1 29 -1.7 82 82 E 17 28 29.88 1012 10 16 0.00 0.00
9:56 am 09:56 Sunny 35 1.7 30 -1.1 82 82 E 18 30 29.86 1011 10 16 0.00 0.00
10:56 am 10:56 Sunny 39 3.9 31 -0.6 73 73 E 20 31 29.83 1010 10 16 0.00 0.00
11:56 am 11:56 Sunny 45 7.2 33 0.6 63 63 ESE 20 31 29.79 1009 10 16 0.00 0.00
12:56 pm 12:56 Sunny 50 10 32 0 50 50 SE 21 33 29.74 1007 10 16 0.00 0.00
1:56 pm 13:56 Sunny 52 11.1 33 0.6 49 49 ESE 23 37 29.70 1006 10 16 0.00 0.00
2:56 pm 14:56 Sunny 55 12.8 35 1.7 47 47 SE 23 37 29.65 1004 10 16 0.00 0.00
3:56 pm 15:56 Sunny 58 14.4 35 1.7 42 42 ESE 18 30 29.63 1003 10 16 0.00 0.00
4:56 pm 16:56 Sunny 59 15 35 1.7 41 41 SE 24 39 29.60 1002 10 16 0.00 0.00
5:56 pm 17:56 Sunny 59 15 36 2.2 42 42 ESE 25 41 29.55 1001 10 16 0.00 0.00
6:56 pm 18:56 Sunny 58 14.4 36 2.2 44 44 E 24 39 29.50 999 10 16 0.00 0.00
7:56 pm 19:56 Sunny 52 11.1 36 2.2 55 55 E 17 28 29.54 1000 10 16 0.00 0.00
8:25 pm 20:25 Clear 54 12 36 2 51 51 N 23 37 29.65 1004 10 16 0.00 0.00
8:56 pm 20:56 Mostly Clear 51 10.6 35 1.7 54 54 N 22 35 29.70 1006 10 16 0.00 0.00
9:56 pm 21:56 Mostly Cloudy 49 9.4 35 1.7 59 59 NNE 16 26 29.71 1006 10 16 0.00 0.00
10:28 pm 22:28 Cloudy 50 10 36 2 58 58 NE 16 26 29.68 1005 10 16 0.00 0.00
10:56 pm 22:56 Cloudy with Light Rain 47 8.3 39 3.9 74 74 NNE 10 17 29.73 1007 10 16 0.01 0.25
11:56 pm 23:56 Cloudy with Light Rain 44 6.7 40 4.4 85 85 NNE 9 15 29.76 1008 10 16 0.02 0.51

Powered by AerisWeather